Marianna, FL

3:23 PM CDT on March 29, 2017 (GMT -0500)
Marianna Municipal

Weather History for KMAI - October, 2011

Change the Weather History Date:

Tuesday, October 25, 2011

  Actual Average Record
Temperature  
Mean Temperature 62 °F 66 °F  
Max Temperature 80 °F 78 °F 89 °F (2010)
Min Temperature 46 °F 54 °F 36 °F (1999)
Degree Days  
Heating Degree Days 2    
Month to date heating degree days  
Since 1 July heating degree days  
Cooling Degree Days 0    
Month to date cooling degree days  
Year to date cooling degree days  
Growing Degree Days 12 (Base 50)    
Moisture  
Dew Point 48 °F    
Average Humidity 66    
Maximum Humidity 93    
Minimum Humidity 30    
Precipitation  
Precipitation 0.00 in 0.12 in 0.02 in (1997)
Month to date precipitation 2.71  
Year to date precipitation 44.84  
Sea Level Pressure  
Sea Level Pressure 30.17 in    
Wind  
Wind Speed 1 mph (ESE)    
Max Wind Speed 8 mph    
Max Gust Speed -    
Visibility 9 miles    
Events      
T = Trace of Precipitation, MM = Missing Value Source: NWS Daily Summary

Daily Weather History Graph

Daily Weather History Graph

Search for Another Location

Airport or City:

Trip Planner

Search our weather history database for the weather conditions in past years. The results will help you decide how hot, cold, wet, or windy it might be!

Date:

Astronomy

Oct. 25, 2011 Rise Set
Actual Time 6:50 AM CDT 5:59 PM CDT
Civil Twilight 6:25 AM CDT 6:23 PM CDT
Nautical Twilight 5:57 AM CDT 6:51 PM CDT
Astronomical Twilight 5:29 AM CDT 7:19 PM CDT
Moon 5:23 AM CDT (10/25) 4:59 PM CDT (10/25)
Length of Visible Light 11h 58m
Length of Day
11h 08m
Waning Crescent, 2% of the Moon is Illuminated
Oct 25
Waning Crescent
Oct 26
New
Nov 2
First Quarter
Nov 10
Full
Nov 18
Last Quarter

Hourly Weather History & Observations

Time (CDT) Temp. Dew Point Humidity Pressure Visibility Wind Dir Wind Speed Gust Speed Precip Events Conditions
12:53 AM 52.0 °F 48.9 °F 89% 30.17 in 10.0 mi Calm Calm - N/A   Clear
1:53 AM 51.1 °F 48.0 °F 89% 30.16 in 10.0 mi Calm Calm - N/A   Clear
2:53 AM 51.1 °F 48.9 °F 92% 30.16 in 7.0 mi Calm Calm - N/A   Clear
3:53 AM 50.0 °F 46.9 °F 89% 30.16 in 8.0 mi Calm Calm - N/A   Clear
4:53 AM 48.9 °F 46.0 °F 90% 30.17 in 7.0 mi Calm Calm - N/A   Clear
5:53 AM 46.9 °F 45.0 °F 93% 30.18 in 9.0 mi Calm Calm - N/A   Clear
6:53 AM 46.9 °F 45.0 °F 93% 30.21 in 7.0 mi Calm Calm - N/A   Clear
7:53 AM 51.1 °F 48.0 °F 89% 30.22 in 8.0 mi Calm Calm - N/A   Clear
8:53 AM 60.1 °F 53.1 °F 78% 30.24 in - Calm Calm - N/A   Unknown
9:53 AM 69.1 °F 53.1 °F 57% 30.24 in 10.0 mi Variable 5.8 mph - N/A   Clear
10:53 AM 73.9 °F 51.1 °F 45% 30.24 in 10.0 mi East 4.6 mph - N/A   Clear
11:53 AM 77.0 °F 50.0 °F 39% 30.22 in 10.0 mi East 8.1 mph - N/A   Clear
12:53 PM 78.1 °F 48.9 °F 36% 30.18 in 10.0 mi NNE 6.9 mph - N/A   Clear
1:53 PM 79.0 °F 45.0 °F 30% 30.15 in 10.0 mi SE 6.9 mph - N/A   Clear
2:53 PM 79.0 °F 46.0 °F 31% 30.14 in 10.0 mi East 3.5 mph - N/A   Clear
3:53 PM 79.0 °F 45.0 °F 30% 30.13 in 10.0 mi Calm Calm - N/A   Clear
4:53 PM 78.1 °F 46.0 °F 32% 30.12 in 10.0 mi Calm Calm - N/A   Clear
5:53 PM 73.9 °F 46.9 °F 38% 30.13 in 10.0 mi Calm Calm - N/A   Clear
6:53 PM 64.9 °F 50.0 °F 58% 30.13 in 10.0 mi Calm Calm - N/A   Clear
7:53 PM 60.1 °F 51.1 °F 72% 30.14 in 10.0 mi Calm Calm - N/A   Clear
8:53 PM 59.0 °F 50.0 °F 72% 30.15 in 10.0 mi Calm Calm - N/A   Clear
9:53 PM 59.0 °F 50.0 °F 72% 30.16 in 10.0 mi SSW 3.5 mph - N/A   Clear
10:53 PM 55.9 °F 50.0 °F 80% 30.15 in 10.0 mi Calm Calm - N/A   Clear
11:53 PM 55.0 °F 48.9 °F 80% 30.15 in 10.0 mi Calm Calm - N/A   Clear